This is the latest recevied weather packets stored in our database for station/object KC5DAQ-28. If no packets are shown the sender has not sent any weather packets the latest 1 day(s).
| Time | Temp. | Humidity | Pressure | Rain* | Wind** | Luminosity | Snow |
|---|---|---|---|---|---|---|---|
| 1778057343 | 24.44° C | 89% | 1002.5 hPa | 0 mm | 2.24 m/s, 137° | 0 W/m² | - |
| 1778057284 | 24.44° C | 89% | 1002.5 hPa | 0 mm | 2.24 m/s, 255° | 0 W/m² | - |
| 1778057223 | 24.44° C | 89% | 1002.5 hPa | 0 mm | 1.79 m/s, 155° | 0 W/m² | - |
| 1778057164 | 24.44° C | 89% | 1002.6 hPa | 0 mm | 1.34 m/s, 188° | 0 W/m² | - |
| 1778057106 | 24.44° C | 89% | 1002.6 hPa | 0 mm | 1.34 m/s, 165° | 0 W/m² | - |
| 1778057043 | 24.44° C | 89% | 1002.7 hPa | 0 mm | 1.34 m/s, 168° | 0 W/m² | - |
| 1778056982 | 24.44° C | 89% | 1002.7 hPa | 0 mm | 1.34 m/s, 159° | 0 W/m² | - |
| 1778056924 | 24.44° C | 89% | 1002.6 hPa | 0 mm | 0.89 m/s, 147° | 0 W/m² | - |
| 1778056863 | 24.44° C | 89% | 1002.6 hPa | 0 mm | 0.89 m/s, 162° | 0 W/m² | - |
| 1778056803 | 24.44° C | 89% | 1002.5 hPa | 0 mm | 0.89 m/s, 171° | 0 W/m² | - |
| 1778056743 | 24.44° C | 89% | 1002.5 hPa | 0 mm | 0.89 m/s, 96° | 0 W/m² | - |
| 1778056683 | 24.44° C | 89% | 1002.5 hPa | 0 mm | 1.34 m/s, 159° | 0 W/m² | - |
| 1778056622 | 24.44° C | 89% | 1002.5 hPa | 0 mm | 1.79 m/s, 158° | 0 W/m² | - |
| 1778056563 | 24.44° C | 89% | 1002.6 hPa | 0 mm | 1.79 m/s, 176° | 0 W/m² | - |
| 1778056504 | 24.44° C | 89% | 1002.5 hPa | 0 mm | 1.79 m/s, 140° | 0 W/m² | - |
| 1778056442 | 24.44° C | 89% | 1002.5 hPa | 0 mm | 1.79 m/s, 154° | 0 W/m² | - |
| 1778056385 | 24.44° C | 89% | 1002.6 hPa | 0 mm | 1.34 m/s, 125° | 0 W/m² | - |
| 1778056323 | 24.44° C | 89% | 1002.6 hPa | 0 mm | 1.79 m/s, 175° | 0 W/m² | - |
| 1778056264 | 24.44° C | 89% | 1002.5 hPa | 0 mm | 1.79 m/s, 159° | 0 W/m² | - |
| 1778056204 | 24.44° C | 89% | 1002.5 hPa | 0 mm | 1.34 m/s, 133° | 0 W/m² | - |
| 1778056145 | 25° C | 89% | 1002.5 hPa | 0 mm | 1.79 m/s, 141° | 0 W/m² | - |
| 1778056083 | 24.44° C | 89% | 1002.5 hPa | 0 mm | 1.34 m/s, 157° | 0 W/m² | - |
| 1778056022 | 24.44° C | 89% | 1002.5 hPa | 0 mm | 1.34 m/s, 154° | 0 W/m² | - |
| 1778055964 | 24.44° C | 89% | 1002.6 hPa | 0 mm | 1.34 m/s, 144° | 0 W/m² | - |
| 1778055903 | 24.44° C | 89% | 1002.6 hPa | 0 mm | 1.79 m/s, 144° | 0 W/m² | - |
* Rain latest hour (hover to see other rain measurements)
** Current wind speed in m/s (hover to see current wind gust speed)